Location: Unspecified
(0.0000°N, 0.0000°E)
Time: 00:58:00
(UTC+00:00)

JUGNU - Pass Details

Date: 08 December 2017
Orbit: 837 x 864 km, 20.0° (Epoch: 15 January)

Event Time Altitude Azimuth Distance (km) Brightness Sun altitude
Exits shadow 02:51:52 10° 66° (ENE) 2,442 ? -40.7°
Drops below altitude 10° 02:51:59 10° 66° (ENE) 2,486 ? -40.7°
Sets 02:54:28 0° 67° (ENE) 3,395 ? -40.1°
